Location: West Cummington
(42.4920°N, 72.9680°W)
Time: 08:13:45
(UTC-04:00)

ATLAS 2AS CENTAUR R/B - Visible Passes

Search period start: 22 September 2014 00:00
Search period end: 02 October 2014 00:00
Orbit: 919 x 1293 km, 63.7° (Epoch: 07 September)

Date Brightness Start Highest point End Pass type
(mag) Time Alt. Az. Time Alt. Az. Time Alt. Az.
22 Sep 5.5 04:24:57 10° ESE 04:26:50 11° E 04:28:45 10° E visible
22 Sep 3.4 06:09:14 10° SSW 06:16:12 65° ESE 06:23:50 10° NE visible
23 Sep 4.1 05:25:11 10° S 05:31:42 42° ESE 05:38:48 10° NE visible
24 Sep 4.7 04:41:41 10° SSE 04:47:22 27° ESE 04:53:27 10° NE visible
25 Sep 5.1 03:59:08 10° SE 04:03:11 16° ESE 04:07:25 10° ENE visible
25 Sep 3.0 05:45:47 10° SSW 05:52:53 83° ESE 06:00:41 10° NE visible
26 Sep 3.5 05:01:27 10° SSW 05:08:17 55° ESE 05:15:45 10° NE visible
27 Sep 4.1 04:18:03 12° S 04:23:51 35° ESE 04:30:37 10° NE visible
27 Sep 3.1 06:07:28 10° SW 06:14:31 56° NW 06:22:13 10° NNE visible
28 Sep 4.7 03:35:38 14° SE 03:39:35 22° ESE 03:45:04 10° ENE visible
28 Sep 2.9 05:23:08 13° SW 05:29:38 80° NW 05:37:29 10° NE visible
29 Sep 5.1 02:53:07 11° ESE 02:55:28 13° E 02:58:24 10° ENE visible
29 Sep 3.0 04:40:37 26° SSW 04:44:56 71° ESE 04:52:38 10° NE visible
30 Sep 3.6 03:58:00 35° SSE 04:00:24 46° ESE 04:07:39 10° NE visible
30 Sep 3.3 05:45:29 14° WSW 05:51:27 46° NW 05:58:57 10° NNE visible
01 Oct 4.1 03:15:17 29° ESE 03:16:02 30° ESE 03:22:22 10° NE visible
01 Oct 2.9 05:02:46 31° WSW 05:06:27 65° NW 05:14:15 10° NNE visible
